User: anonymous   Login
Location: Unspecified
(0.0000°N, 0.0000°E)
Time: 00:15:58
(UTC+00:00)
Language:

GALASSIA - Orbit

View from above orbital plane
View from above orbital plane
View from above satellite
View from above satellite

Ground track
Ground track

The orbit data is extracted from the following two-line orbital elements,

1 41170U 15077E   17231.36593800  .00002258  00000-0  88491-4 0  9992
2 41170  14.9895  63.8475 0013533 190.8615 169.1414 15.12218760 92650
Epoch (UTC): 19 August 2017 08:46:57
Eccentricity: 0.0013533
inclination: 14.9895°
perigee height: 520 km
apogee height: 539 km
right ascension of ascending node: 63.8475°
argument of perigee: 190.8615°
revolutions per day: 15.12218760
mean anomaly at epoch: 169.1414°
orbit number at epoch: 9265

The dashed part of the orbit path shows where the satellite is in the earth's shadow,  

DLR